Denver, CO

6:29 PM MST on January 19, 2018 (GMT -0700)
Front Range

Weather History for KFTG - October, 2012

Change the Weather History Date:

Tuesday, October 9, 2012

  Actual Average (KBKF) Record (KBKF)
Temperature  
Mean Temperature 43 °F -  
Max Temperature 53 °F 66 °F 84 °F (2003)
Min Temperature 33 °F 39 °F 27 °F (2017)
Degree Days  
Heating Degree Days 22    
Moisture  
Dew Point 29 °F    
Average Humidity 65    
Maximum Humidity 87    
Minimum Humidity 19    
Precipitation  
Precipitation 0.00 in - - ()
Sea Level Pressure  
Sea Level Pressure 30.05 in    
Wind  
Wind Speed 8 mph (South)    
Max Wind Speed 14 mph    
Max Gust Speed 20 mph    
Visibility 10 miles    
Events      
Averages and records for this station are not official NWS values.
T = Trace of Precipitation, MM = Missing Value Source: NWS Daily Summary

Daily Weather History Graph

Daily Weather History Graph

Search for Another Location

Airport or City:

Trip Planner

Search our weather history database for the weather conditions in past years. The results will help you decide how hot, cold, wet, or windy it might be!

Date:

Astronomy

Oct. 09, 2012 Rise Set
Actual Time 7:02 AM MDT 6:27 PM MDT
Civil Twilight 6:35 AM MDT 6:54 PM MDT
Nautical Twilight 6:04 AM MDT 7:25 PM MDT
Astronomical Twilight 5:33 AM MDT 7:56 PM MDT
Moon 12:42 AM MDT (10/9) 2:55 PM MDT (10/9)
Length of Visible Light 12h 18m
Length of Day
11h 24m
Last Quarter, 36% of the Moon is Illuminated
Oct 9
Last Quarter
Oct 15
New
Oct 21
First Quarter
Oct 29
Full
Nov 6
Last Quarter

Hourly Weather History & Observations

Time (MDT) Temp. Windchill Dew Point Humidity Pressure Visibility Wind Dir Wind Speed Gust Speed Precip Events Conditions
12:16 AM 53.6 °F - 14.0 °F 21% 29.89 in 10.0 mi SW 11.5 mph - N/A   Clear
12:45 AM 53.6 °F - 14.0 °F 21% 29.89 in 10.0 mi SSW 10.4 mph - N/A   Clear
1:16 AM 53.6 °F - 12.2 °F 19% 29.89 in 10.0 mi SSW 12.7 mph - N/A   Clear
2:09 AM 51.8 °F - 14.0 °F 22% 29.90 in 10.0 mi SW 10.4 mph - N/A   Clear
2:36 AM 51.8 °F - 15.8 °F 24% 29.90 in 10.0 mi SW 6.9 mph - N/A   Clear
2:47 AM 51.8 °F - 17.6 °F 26% 29.90 in 10.0 mi WSW 10.4 mph - N/A   Clear
3:06 AM 50.0 °F - 17.6 °F 28% 29.92 in 10.0 mi North 12.7 mph 19.6 mph N/A   Clear
3:25 AM 44.6 °F 38.8 °F 24.8 °F 46% 29.93 in 10.0 mi NNE 11.5 mph - N/A   Clear
3:47 AM 41.0 °F 36.4 °F 26.6 °F 57% 29.94 in 10.0 mi ENE 6.9 mph - N/A   Clear
4:06 AM 41.0 °F 33.9 °F 28.4 °F 61% 29.94 in 10.0 mi North 12.7 mph - N/A   Clear
4:25 AM 39.2 °F - 30.2 °F 70% 29.96 in 10.0 mi Calm Calm - N/A   Clear
4:44 AM 39.2 °F 33.6 °F 30.2 °F 70% 29.96 in 10.0 mi North 8.1 mph - N/A   Clear
5:08 AM 37.4 °F 34.9 °F 30.2 °F 75% 29.98 in 10.0 mi North 3.5 mph - N/A   Clear
5:31 AM 35.6 °F - 30.2 °F 81% 29.99 in 10.0 mi Calm Calm - N/A   Clear
5:47 AM 33.8 °F 30.8 °F 28.4 °F 81% 30.00 in 10.0 mi WNW 3.5 mph - N/A   Clear
6:07 AM 33.8 °F 28.6 °F 30.2 °F 87% 30.03 in 10.0 mi WSW 5.8 mph - N/A   Clear
6:32 AM 35.6 °F 30.7 °F 30.2 °F 81% 30.03 in 10.0 mi WSW 5.8 mph - N/A   Scattered Clouds
6:45 AM 35.6 °F 32.8 °F 30.2 °F 81% 30.02 in 10.0 mi SW 3.5 mph - N/A   Scattered Clouds
6:47 AM 35.6 °F 30.7 °F 30.2 °F 81% 30.02 in 10.0 mi SW 5.8 mph - N/A   Scattered Clouds
7:47 AM 39.2 °F - 32.0 °F 75% 30.06 in 20.0 mi Calm Calm - N/A   Mostly Cloudy
8:04 AM 39.2 °F - 33.8 °F 81% 30.07 in 20.0 mi Calm Calm - N/A   Overcast
8:48 AM 41.0 °F 37.1 °F 35.6 °F 81% 30.09 in 8.0 mi East 5.8 mph - N/A   Overcast
9:48 AM 41.0 °F - 35.6 °F 81% 30.10 in 8.0 mi Calm Calm - N/A   Overcast
10:50 AM 42.8 °F 40.1 °F 37.4 °F 81% 30.10 in 8.0 mi ENE 4.6 mph - N/A   Overcast
11:50 AM 42.8 °F 38.0 °F 37.4 °F 81% 30.12 in 8.0 mi NNE 8.1 mph - N/A   Overcast
12:50 PM 42.8 °F 39.3 °F 37.4 °F 81% 30.11 in 10.0 mi NE 5.8 mph - N/A   Overcast
3:48 PM 46.4 °F 43.5 °F 37.4 °F 71% 30.12 in 10.0 mi East 5.8 mph - N/A   Overcast
9:16 PM 44.6 °F 39.2 °F 35.6 °F 71% 30.22 in 10.0 mi SSE 10.4 mph - N/A   Overcast
9:37 PM 44.6 °F 38.8 °F 35.6 °F 71% 30.22 in 10.0 mi SSE 11.5 mph - N/A   Overcast
9:56 PM 44.6 °F 38.8 °F 35.6 °F 71% 30.22 in 10.0 mi SSE 11.5 mph - N/A   Overcast
10:16 PM 44.6 °F 39.7 °F 35.6 °F 71% 30.22 in 10.0 mi SSE 9.2 mph - N/A   Overcast
10:36 PM 44.6 °F 40.2 °F 35.6 °F 71% 30.22 in 10.0 mi South 8.1 mph - N/A   Overcast
10:56 PM 42.8 °F 37.5 °F 35.6 °F 76% 30.22 in 10.0 mi South 9.2 mph - N/A   Overcast
11:15 PM 42.8 °F 37.0 °F 35.6 °F 76% 30.21 in 10.0 mi South 10.4 mph - N/A   Scattered Clouds
11:36 PM 42.8 °F 35.8 °F 35.6 °F 76% 30.20 in 10.0 mi SSW 13.8 mph - N/A   Clear
11:56 PM 42.8 °F 37.5 °F 35.6 °F 76% 30.20 in 10.0 mi SSW 9.2 mph - N/A   Clear